Regional Weather Roundup
Issued by NWS State College, PA

Home | Current Version | Previous Version | Text Only | Print | Product List | Glossary On
Versions: 1 2 3 4 5 6 7 8 9 10 11 12 13 14 15 16 17 18 19 20 21 22 23 24 25 26 27 28 29 30 31 32 33 34 35 36 37 38 39 40 41 42 43 44 45 46 47 48 49 50
712
ASUS41 KCTP 300103
RWRCTP

REGIONAL WEATHER ROUNDUP
NATIONAL WEATHER SERVICE STATE COLLEGE PA
900 PM EDT WED MAR 29 2017

Note: "fair" indicates few or no clouds below 12,000 feet with no
significant weather and/or obstructions to visibility.

* = STATION THAT DOES NOT REPORT PRECIPITATION /E.G. RAIN...SNOW...ETC/
    THUNDER OR FOG.

PAZ002>004-007>009-013>016-020>023-029>032-300200-
WESTERN PENNSYLVANIA

CITY           SKY/WX    TMP DP  RH WIND       PRES   REMARKS
ERIE           PTCLDY    42  31  64 E8        30.25S
MEADVILLE      CLOUDY    45  27  49 NE8       30.21F
FRANKLIN*      CLOUDY    45  27  49 NE10      30.23R
NEW CASTLE     FAIR      48  31  51 NE10      30.20F
BEAVER COUNTY  CLEAR     50  30  46 N10       30.18S
BUTLER*        CLEAR     50  30  46 N7        30.19R
PITTSBURGH INT MOCLDY    54  30  40 N8        30.16R
PITTSBURGH     CLEAR     52  30  43 N7        30.16R
INDIANA*       CLEAR     52  28  40 NE3       30.20S
LATROBE        CLEAR     50  32  50 CALM      30.18S
WASHINGTON CO* PTCLDY    48  30  49 NE5       30.17F
$$

PAZ004>006-010>012-017>019-024>028-033>037-041-042-045-046-049>053-300200-
CENTRAL PENNSYLVANIA

CITY           SKY/WX    TMP DP  RH WIND       PRES   REMARKS
BRADFORD       CLEAR     41  27  57 N7        30.22R
DUBOIS         PTCLDY    47  26  44 N8        30.19R
CLEARFIELD     PTCLDY    48  27  44 NE7       30.20R
JOHNSTOWN      CLEAR     50  27  40 N5        30.16S
ALTOONA        CLEAR     48  31  51 E5        30.18R
STATE COLLEGE  CLEAR     48  28  46 NE5       30.20R
WILLIAMSPORT   PTCLDY    47  26  44 NE10G18   30.23R
SELINSGROVE    PTCLDY    48  30  49 N8        30.22R
FT INDIANTOWN  PTCLDY    48  27  44 NE6       30.20R
CAPITAL CITY   CLEAR     54  26  34 N3        30.20R
HARRISBURG     PTCLDY    51  28  41 N5        30.19R
YORK           CLEAR     49  31  49 N5        30.18R
$$

PAZ038>040-043-044-047-048-054-055-060>062-067>071-300200-
EASTERN PENNSYLVANIA

CITY           SKY/WX    TMP DP  RH WIND       PRES   REMARKS
SCRANTON       CLEAR     42  25  50 N16       30.23R
MOUNT POCONO   CLEAR     36  24  62 N12G21    30.17R
ALLENTOWN      CLEAR     46  25  43 NW8       30.21R
QUAKERTOWN*    CLEAR     46  27  46 N9        30.21R
READING        CLEAR     47  28  47 N5        30.19R
LANCASTER      CLEAR     49  30  48 NE8       30.19R
COATESVILLE    CLEAR     48  28  46 N6        30.20R
POTTSTOWN      CLEAR     48  25  40 N16G26    30.21R
BLUE BELL      CLEAR     48  28  46 N3        30.19R
DOYLESTOWN     CLEAR     48  27  44 NW7       30.19R
WILLOW GROVE   NOT AVBL
NORTH PHILA    CLEAR     51  28  41 N9        30.20R
PHILADELPHIA   CLEAR     53  26  35 N13       30.19R
$$




USA.gov is the U.S. government's official web portal to all federal, state and local government web resources and services.